FW0979 Weather Reports


time (UTC)temp
C
wind
direction
speed
KPH
gust
KPH
rain 1hr
cm
rain 24hr
cm
rain mn
cm
humidity
%
barometer
mb
20260507191520 21 360 4.8 16.1 0.00 0.00 0.00 39 1014.0
20260507190009 21 149 3.2 12.9 0.00 0.00 0.00 41 1014.1
20260507184506 -17 0.0 0.0 0.00 0.00 0.00 1014.5
20260507183002 20 183 4.8 9.7 0.00 0.00 0.00 43 1014.6
20260507181502 20 264 4.8 14.5 0.00 0.00 0.00 44 1015.1
20260507180101 20 177 3.2 14.5 0.00 0.00 0.00 43 1015.4
20260507180001 20 184 3.2 14.5 0.00 0.00 0.00 43 1015.4
20260507174601 20 148 4.8 11.3 0.00 0.00 0.00 44 1015.8
20260507173103 19 129 3.2 11.3 0.00 0.00 0.00 45 1016.1
20260507171556 19 220 3.2 11.3 0.00 0.00 0.00 47 1016.3
20260507170054 18 217 4.8 11.3 0.00 0.00 0.00 47 1016.6
20260507164551 18 200 3.2 9.7 0.00 0.00 0.00 48 1016.8
20260507163046 16 360 4.8 12.9 0.00 0.00 0.00 53 1017.0
20260507161551 16 180 4.8 12.9 0.00 0.00 0.00 52 1017.2
20260507160042 15 116 4.8 12.9 0.00 0.00 0.00 55 1017.3
20260507154542 15 91 6.4 14.5 0.00 0.00 0.00 55 1017.5
20260507153038 14 63 4.8 12.9 0.00 0.00 0.00 56 1017.6
20260507151538 13 129 4.8 12.9 0.00 0.00 0.00 59 1017.7
20260507150036 13 94 8.0 16.1 0.00 0.00 0.00 59 1017.8
20260507144536 12 107 4.8 16.1 0.00 0.00 0.00 60 1017.9
20260507143033 12 360 6.4 16.1 0.00 0.00 0.00 62 1017.9
20260507141531 12 79 6.4 12.9 0.00 0.00 0.00 64 1017.9
20260507140034 11 360 8.0 16.1 0.00 0.00 0.00 66 1017.9
20260507134526 11 360 9.7 17.7 0.00 0.00 0.00 67 1017.7
20260507133024 10 360 11.3 20.9 0.00 0.00 0.00 68 1017.5
20260507131521 10 360 9.7 17.7 0.00 0.00 0.00 69 1017.3
20260507130020 10 360 9.7 17.7 0.00 0.00 0.00 69 1017.1
20260507124515 9 79 8.0 14.5 0.00 0.00 0.00 69 1017.2
20260507123021 9 83 9.7 16.1 0.00 0.00 0.00 69 1017.1
20260507121509 9 73 11.3 19.3 0.00 0.00 0.00 69 1016.8
20260507120006 9 360 11.3 24.1 0.00 0.00 0.00 69 1016.8
20260507114503 9 85 11.3 19.3 0.00 0.00 0.00 70 1016.6
20260507113058 9 98 14.5 27.4 0.00 0.00 0.00 70 1016.4
20260507111552 10 76 9.7 22.5 0.00 0.00 0.00 71 1016.3
20260507110057 10 95 11.3 24.1 0.00 0.00 0.00 71 1016.2
20260507104550 10 100 11.3 19.3 0.00 0.00 0.00 70 1016.2
20260507103101 10 82 11.3 22.5 0.00 0.00 0.00 69 1015.9
20260507101539 10 360 11.3 22.5 0.00 0.00 0.00 68 1015.9
20260507100031 11 79 14.5 24.1 0.00 0.00 0.00 67 1015.8
20260507094531 11 86 11.3 22.5 0.00 0.00 0.00 67 1015.8
20260507093022 11 360 17.7 29.0 0.00 0.00 0.00 66 1015.6
20260507091519 11 74 11.3 20.9 0.00 0.00 0.00 65 1015.5
20260507090012 11 96 12.9 20.9 0.00 0.00 0.00 65 1015.3
20260507084529 11 65 11.3 22.5 0.00 0.00 0.00 64 1015.3
20260507083006 11 360 14.5 24.1 0.00 0.00 0.00 64 1015.4
20260507081501 12 82 12.9 27.4 0.00 0.00 0.00 63 1015.2
20260507080056 12 96 14.5 24.1 0.00 0.00 0.00 62 1015.1
20260507074552 12 86 17.7 27.4 0.00 0.00 0.00 61 1015.0
20260507073045 13 360 16.1 27.4 0.00 0.00 0.00 61 1015.1
20260507071541 13 68 14.5 27.4 0.00 0.00 0.00 61 1015.0
20260507070053 13 84 14.5 22.5 0.00 0.00 0.00 61 1014.3
20260507064527 13 63 14.5 25.7 0.00 0.00 0.00 58 1013.6
20260507063019 14 141 12.9 25.7 0.00 0.00 0.00 57 1013.0
20260507061513 15 108 9.7 16.1 0.00 0.00 0.00 57 1012.9
20260507060012 15 360 11.3 24.1 0.00 0.00 0.00 56 1012.6
20260507054503 15 360 14.5 25.7 0.00 0.00 0.00 55 1012.3
20260507053001 16 134 12.9 25.7 0.00 0.00 0.00 54 1012.1
20260507051602 16 113 11.3 19.3 0.00 0.00 0.00 53 1012.0
20260507050100 16 111 11.3 22.5 0.00 0.00 0.00 52 1011.8
20260507050002 16 360 11.3 22.5 0.00 0.00 0.00 51 1011.9
20260507044600 17 135 9.7 19.3 0.00 0.00 0.00 47 1011.7
20260507043056 18 155 3.2 17.7 0.00 0.00 0.00 44 1011.5
20260507041603 19 105 6.4 12.9 0.00 0.00 0.00 40 1011.3
20260507040054 20 316 4.8 14.5 0.00 0.00 0.00 26 1011.1
20260507034552 18 122 9.7 19.3 0.00 0.00 0.00 32 1010.7
20260507033053 18 281 3.2 8.0 0.00 0.00 0.00 26 1010.3
20260507031551 19 285 1.6 4.8 0.00 0.00 0.00 27 1010.0
20260507030051 20 285 1.6 4.8 0.00 0.00 0.00 27 1009.7
20260507024553 21 285 1.6 4.8 0.00 0.00 0.00 23 1009.7
20260507023049 21 285 3.2 8.0 0.00 0.00 0.00 18 1009.4
20260507021601 22 283 6.4 12.9 0.00 0.00 0.00 18 1009.1
20260507020106 22 283 8.0 14.5 0.00 0.00 0.00 18 1008.9
20260507014616 23 291 11.3 19.3 0.00 0.00 0.00 17 1008.8
20260507013050 24 293 11.3 22.5 0.00 0.00 0.00 16 1008.6
20260507011556 25 285 17.7 27.4 0.00 0.00 0.00 15 1008.3
20260507010047 25 283 11.3 22.5 0.00 0.00 0.00 14 1008.2
20260507004545 25 283 17.7 29.0 0.00 0.00 0.00 14 1008.1
20260507003044 26 283 20.9 32.2 0.00 0.00 0.00 13 1007.9
20260507001558 26 280 12.9 29.0 0.00 0.00 0.00 13 1007.7
20260507000056 26 264 22.5 40.2 0.00 0.00 0.00 13 1007.6
20260506234601 26 360 14.5 30.6 0.00 0.00 0.00 13 1007.5
20260506233047 26 285 24.1 33.8 0.00 0.00 0.00 13 1007.6
20260506231543 27 266 20.9 43.5 0.00 0.00 0.00 12 1007.4
20260506230041 26 273 16.1 30.6 0.00 0.00 0.00 13 1007.2
20260506224539 26 279 25.7 37.0 0.00 0.00 0.00 13 1007.1
20260506223138 26 264 20.9 46.7 0.00 0.00 0.00 13 1007.1
20260506221550 26 279 27.4 40.2 0.00 0.00 0.00 12 1007.4
20260506220043 27 264 17.7 32.2 0.00 0.00 0.00 13 1007.3
20260506214533 26 360 12.9 33.8 0.00 0.00 0.00 14 1007.4
20260506213040 26 259 22.5 38.6 0.00 0.00 0.00 14 1007.7
20260506211540 26 219 17.7 30.6 0.00 0.00 0.00 16 1007.9
20260506210035 26 281 20.9 48.3 0.00 0.00 0.00 19 1008.2
20260506204531 26 276 14.5 33.8 0.00 0.00 0.00 20 1008.4
20260506203021 25 360 17.7 37.0 0.00 0.00 0.00 20 1008.6
20260506201523 25 291 24.1 37.0 0.00 0.00 0.00 20 1008.8
20260506200018 24 360 11.3 22.5 0.00 0.00 0.00 23 1008.8
20260506194517 24 267 16.1 29.0 0.00 0.00 0.00 21 1009.1
20260506193018 23 231 11.3 22.5 0.00 0.00 0.00 27 1008.9